Regional Weather Roundup
Issued by NWS

Home | Current Version | Previous Version | Graphics & Text | Print | Product List | Glossary On
Versions: 1 2 3 4 5 6 7 8 9 10 11 12 13 14 15 16 17 18 19 20 21 22 23 24 25 26 27 28 29 30 31 32 33 34 35 36 37 38 39 40 41 42 43 44 45 46 47 48 49 50
000
ASUS43 KLMK 290810
RWRKY
KENTUCKY REGIONAL WEATHER ROUNDUP
NATIONAL WEATHER SERVICE LOUISVILLE KY
400 AM EDT SAT APR 29 2017

NOTE "FAIR" INDICATES FEW OR NO CLOUDS BELOW 12,000 FEET
WITH NO SIGNIFICANT WEATHER AND/OR OBSTRUCTIONS TO VISIBILITY.

KYZ001>023-026-027-061>063-070>075-290900-
WESTERN AND SOUTH CENTRAL KENTUCKY

CITY           SKY/WX    TMP DP  RH WIND       PRES   REMARKS
PADUCAH        CLOUDY    77  67  71 VRB5      29.81S
HENDERSON        N/A    N/A N/A N/A MISG        N/A  THUNDER
OWENSBORO      CLOUDY    68  65  90 NE3       29.88F
HOPKINSVILLE   CLOUDY    75  68  77 S10       29.89S
BOWLING GREEN  CLOUDY    76  69  79 S8        29.93S
GLASGOW        CLOUDY    76  65  70 S8        29.96S
$$

KYZ024-025-028>034-038-045-046-053-290900-
NORTH CENTRAL KENTUCKY

CITY           SKY/WX    TMP DP  RH WIND       PRES   REMARKS
LOUISVILLE/SDF TSTM      66  63  90 S9G17     29.93F FOG
LOUISVILLE/LOU NOT AVBL
FORT KNOX      HVY RAIN  66  63  88 CALM      29.94F FOG
$$

KYZ035>037-039>044-047>052-055>060-089>105-290900-
NORTHEAST KENTUCKY

CITY           SKY/WX    TMP DP  RH WIND       PRES   REMARKS
LEXINGTON      CLOUDY    69  59  70 N12       30.03R
COVINGTON      RAIN      66  65  96 S12       29.93F FOG
FRANKFORT      TSTM      65  60  84 VRB5G18   30.01R
$$

KYZ054-064>069-076>088-106>120-290900-
SOUTHEAST KENTUCKY

CITY           SKY/WX    TMP DP  RH WIND       PRES   REMARKS
JACKSON        CLOUDY    73  63  70 VRB5      30.05R
LONDON         CLOUDY    65  61  87 CALM      30.04R
SOMERSET       CLOUDY    72  63  73 CALM      30.03R
MIDDLESBORO    PTCLDY    75  64  68 SW12      30.07R
MONTICELLO     CLOUDY    74  66  76 VRB7      30.03R
$$





USA.gov is the U.S. government's official web portal to all federal, state and local government web resources and services.